status,avgMeasuredTime,avgSpeed,extID,medianMeasuredTime,TIMESTAMP,vehicleCount,_id,REPORT_ID
OK,88,31,1016,88,2014-08-01T08:00:00,3,20747071,185343
OK,77,36,1016,77,2014-08-01T08:10:00,0,20747893,185343
OK,77,36,1016,77,2014-08-01T08:15:00,0,20748342,185343
OK,77,36,1016,77,2014-08-01T08:20:00,0,20748791,185343
OK,77,36,1016,77,2014-08-01T08:25:00,0,20749240,185343
OK,77,36,1016,77,2014-08-01T08:30:00,0,20749689,185343
OK,77,36,1016,77,2014-08-01T08:40:00,0,20750587,185343
OK,84,33,1016,84,2014-08-01T08:50:00,2,20751485,185343
OK,82,34,1016,82,2014-08-01T09:00:00,0,20752383,185343
OK,80,35,1016,80,2014-08-01T09:05:00,3,20752832,185343
OK,80,35,1016,80,2014-08-01T09:10:00,3,20753281,185343
OK,69,40,1016,69,2014-08-01T09:20:00,0,20754179,185343
OK,94,29,1016,94,2014-08-01T09:25:00,1,20754628,185343
OK,94,29,1016,94,2014-08-01T09:30:00,1,20755077,185343
OK,94,29,1016,94,2014-08-01T09:35:00,0,20755526,185343
OK,67,41,1016,67,2014-08-01T09:40:00,1,20755975,185343
OK,73,38,1016,73,2014-08-01T09:45:00,2,20756424,185343
OK,79,35,1016,79,2014-08-01T09:50:00,1,20756873,185343
OK,176,15,1016,176,2014-08-01T09:55:00,1,20757322,185343
OK,176,15,1016,176,2014-08-01T10:00:00,1,20757771,185343
OK,176,15,1016,176,2014-08-01T10:15:00,0,20759118,185343
OK,176,15,1016,176,2014-08-01T10:20:00,0,20759567,185343
OK,1191,2,1016,1191,2014-08-01T10:25:00,1,20760016,185343
OK,176,15,1016,176,2014-08-01T10:30:00,0,20760465,185343
OK,105,26,1016,105,2014-08-01T10:40:00,1,20761363,185343
OK,159,17,1016,159,2014-08-01T10:50:00,2,20762261,185343
OK,84,33,1016,84,2014-08-01T11:00:00,2,20763159,185343
OK,76,36,1016,76,2014-08-01T11:20:00,3,20764954,185343
OK,102,27,1016,102,2014-08-01T11:25:00,1,20765403,185343
OK,102,27,1016,102,2014-08-01T11:30:00,1,20765852,185343
OK,102,27,1016,102,2014-08-01T11:35:00,0,20766301,185343
OK,69,40,1016,69,2014-08-01T11:40:00,1,20766750,185343
OK,72,39,1016,72,2014-08-01T11:45:00,3,20767199,185343
OK,72,39,1016,72,2014-08-01T11:50:00,2,20767648,185343
OK,72,39,1016,72,2014-08-01T11:55:00,0,20768097,185343
OK,69,40,1016,69,2014-08-01T12:00:00,2,20768546,185343
OK,78,36,1016,78,2014-08-01T12:10:00,2,20769444,185343
OK,69,40,1016,69,2014-08-01T12:20:00,1,20770342,185343
OK,69,40,1016,69,2014-08-01T12:25:00,0,20770791,185343
OK,69,40,1016,69,2014-08-01T12:30:00,0,20771240,185343
OK,69,40,1016,69,2014-08-01T12:35:00,0,20771689,185343
OK,1166,2,1016,1166,2014-08-01T12:40:00,2,20772138,185343
OK,2262,1,1016,2262,2014-08-01T12:45:00,1,20772587,185343
OK,71,39,1016,71,2014-08-01T12:50:00,1,20773036,185343
OK,104,27,1016,104,2014-08-01T12:55:00,2,20773485,185343
OK,105,26,1016,105,2014-08-01T13:00:00,2,20773934,185343
OK,72,39,1016,72,2014-08-01T13:05:00,1,20774383,185343
OK,121,23,1016,121,2014-08-01T13:10:00,1,20774832,185343
OK,121,23,1016,121,2014-08-01T13:15:00,3,20775281,185343
OK,137,20,1016,137,2014-08-01T13:20:00,3,20775730,185343
OK,161,17,1016,161,2014-08-01T13:25:00,3,20776179,185343
OK,165,17,1016,165,2014-08-01T13:30:00,2,20776628,185343
OK,107,26,1016,107,2014-08-01T13:35:00,1,20777077,185343
OK,107,26,1016,107,2014-08-01T13:40:00,0,20777526,185343
OK,92,30,1016,92,2014-08-01T13:45:00,1,20777975,185343
OK,92,30,1016,92,2014-08-01T13:50:00,1,20778424,185343
OK,92,30,1016,92,2014-08-01T14:00:00,0,20779322,185343
OK,92,30,1016,92,2014-08-01T14:05:00,0,20779771,185343
OK,92,30,1016,92,2014-08-01T14:10:00,0,20780220,185343
OK,92,30,1016,92,2014-08-01T14:15:00,0,20780669,185343
OK,63,44,1016,63,2014-08-01T14:20:00,2,20781118,185343
OK,63,44,1016,63,2014-08-01T14:25:00,2,20781567,185343
OK,63,44,1016,63,2014-08-01T14:30:00,0,20782016,185343
OK,63,44,1016,63,2014-08-01T14:35:00,0,20782465,185343
OK,140,20,1016,140,2014-08-01T14:40:00,2,20782914,185343
OK,140,20,1016,140,2014-08-01T14:45:00,2,20783363,185343
OK,140,20,1016,140,2014-08-01T14:50:00,0,20783812,185343
OK,81,34,1016,81,2014-08-01T15:00:00,1,20784710,185343
OK,81,34,1016,81,2014-08-01T15:05:00,0,20785159,185343
OK,51,55,1016,51,2014-08-01T15:10:00,1,20785608,185343
OK,51,55,1016,51,2014-08-01T15:15:00,1,20786057,185343
OK,51,55,1016,51,2014-08-01T15:20:00,0,20786506,185343
OK,51,55,1016,51,2014-08-01T15:25:00,0,20786955,185343
OK,51,55,1016,51,2014-08-01T15:30:00,0,20787404,185343
OK,74,37,1016,74,2014-08-01T15:35:00,1,20787853,185343
OK,74,37,1016,74,2014-08-01T15:40:00,1,20788302,185343
OK,74,37,1016,74,2014-08-01T15:45:00,0,20788751,185343
OK,74,37,1016,74,2014-08-01T15:50:00,0,20789200,185343
OK,74,37,1016,74,2014-08-01T15:55:00,0,20789649,185343
OK,109,25,1016,109,2014-08-01T16:00:00,2,20790098,185343
OK,109,25,1016,109,2014-08-01T16:05:00,2,20790547,185343
OK,120,23,1016,120,2014-08-01T16:10:00,0,20790996,185343
OK,161,17,1016,161,2014-08-01T16:15:00,1,20791445,185343
OK,119,23,1016,119,2014-08-01T16:20:00,2,20791894,185343
OK,77,36,1016,77,2014-08-01T16:25:00,1,20792343,185343
OK,106,26,1016,106,2014-08-01T16:30:00,2,20792792,185343
OK,106,26,1016,106,2014-08-01T16:35:00,2,20793241,185343
OK,106,26,1016,106,2014-08-01T16:40:00,0,20793690,185343
OK,98,28,1016,98,2014-08-01T16:45:00,2,20794139,185343
OK,98,28,1016,98,2014-08-01T16:50:00,2,20794588,185343
OK,72,39,1016,72,2014-08-01T16:55:00,0,20795037,185343
OK,72,39,1016,72,2014-08-01T17:00:00,0,20795486,185343
OK,72,39,1016,72,2014-08-01T17:05:00,0,20795935,185343
OK,72,39,1016,72,2014-08-01T17:10:00,0,20796384,185343
OK,72,39,1016,72,2014-08-01T17:15:00,0,20796833,185343
OK,72,39,1016,72,2014-08-01T17:20:00,0,20797282,185343
OK,72,39,1016,72,2014-08-01T17:25:00,0,20797731,185343
OK,72,39,1016,72,2014-08-01T17:30:00,0,20798180,185343
OK,72,39,1016,72,2014-08-01T17:35:00,0,20798629,185343
OK,72,39,1016,72,2014-08-01T17:40:00,0,20799078,185343
OK,72,39,1016,72,2014-08-01T17:45:00,0,20799527,185343
OK,72,39,1016,72,2014-08-01T17:50:00,0,20799976,185343
OK,72,39,1016,72,2014-08-01T17:55:00,0,20800425,185343
OK,72,39,1016,72,2014-08-01T18:00:00,0,20800874,185343
OK,75,37,1016,75,2014-08-01T18:05:00,1,20801323,185343
OK,75,37,1016,75,2014-08-01T18:10:00,1,20801772,185343
OK,75,37,1016,75,2014-08-01T18:15:00,0,20802221,185343
OK,58,48,1016,58,2014-08-01T18:20:00,1,20802670,185343
OK,81,34,1016,81,2014-08-01T18:25:00,2,20803119,185343
OK,105,26,1016,105,2014-08-01T18:30:00,1,20803568,185343
OK,58,48,1016,58,2014-08-01T18:35:00,0,20804017,185343
OK,88,31,1016,88,2014-08-01T18:40:00,1,20804466,185343
OK,88,31,1016,88,2014-08-01T18:45:00,1,20804915,185343
OK,88,31,1016,88,2014-08-01T18:50:00,0,20805364,185343
OK,88,31,1016,88,2014-08-01T18:55:00,0,20805813,185343
OK,88,31,1016,88,2014-08-01T19:00:00,0,20806262,185343
OK,88,31,1016,88,2014-08-01T19:05:00,0,20806711,185343
OK,74,37,1016,74,2014-08-01T19:10:00,1,20807160,185343
OK,74,37,1016,74,2014-08-01T19:15:00,1,20807609,185343
OK,74,37,1016,74,2014-08-01T19:20:00,0,20808058,185343
OK,74,37,1016,74,2014-08-01T19:25:00,0,20808507,185343
OK,74,37,1016,74,2014-08-01T19:30:00,0,20808956,185343
OK,74,37,1016,74,2014-08-01T19:35:00,3,20809405,185343
OK,74,37,1016,74,2014-08-01T19:40:00,3,20809854,185343
OK,104,27,1016,104,2014-08-01T19:45:00,1,20810303,185343
OK,104,27,1016,104,2014-08-01T19:50:00,1,20810752,185343
OK,104,27,1016,104,2014-08-01T19:55:00,0,20811201,185343
OK,104,27,1016,104,2014-08-01T22:00:00,0,20816930,185343
OK,104,27,1016,104,2014-08-02T00:00:00,0,20823369,185343
OK,45,62,1016,45,2014-08-02T00:05:00,1,20823818,185343
OK,45,62,1016,45,2014-08-02T00:10:00,0,20824267,185343
OK,45,62,1016,45,2014-08-02T00:15:00,0,20824716,185343
OK,45,62,1016,45,2014-08-02T00:20:00,0,20825165,185343
OK,45,62,1016,45,2014-08-02T00:25:00,0,20825614,185343
OK,45,62,1016,45,2014-08-02T00:30:00,0,20826063,185343
OK,45,62,1016,45,2014-08-02T00:35:00,0,20826512,185343
OK,45,62,1016,45,2014-08-02T00:40:00,0,20826961,185343
OK,45,62,1016,45,2014-08-02T00:45:00,0,20827410,185343
OK,92,30,1016,92,2014-08-02T00:50:00,1,20827859,185343
OK,82,34,1016,82,2014-08-02T00:55:00,2,20828308,185343
OK,72,39,1016,72,2014-08-02T01:00:00,0,20828757,185343
OK,72,39,1016,72,2014-08-02T01:05:00,0,20829206,185343
OK,72,39,1016,72,2014-08-02T01:10:00,0,20829655,185343
OK,72,39,1016,72,2014-08-02T01:15:00,0,20830104,185343
OK,72,39,1016,72,2014-08-02T01:20:00,0,20830553,185343
OK,72,39,1016,72,2014-08-02T01:25:00,0,20831002,185343
OK,72,39,1016,72,2014-08-02T01:30:00,0,20831451,185343
OK,72,39,1016,72,2014-08-02T01:35:00,0,20831900,185343
OK,72,39,1016,72,2014-08-02T01:40:00,0,20832349,185343
OK,87,32,1016,87,2014-08-02T01:45:00,1,20832798,185343
OK,87,32,1016,87,2014-08-02T01:50:00,0,20833247,185343
OK,87,32,1016,87,2014-08-02T01:55:00,0,20833696,185343
OK,87,32,1016,87,2014-08-02T02:00:00,0,20834145,185343
OK,87,32,1016,87,2014-08-02T02:05:00,0,20834594,185343
OK,87,32,1016,87,2014-08-02T02:10:00,0,20835043,185343
OK,87,32,1016,87,2014-08-02T02:15:00,0,20835492,185343
OK,87,32,1016,87,2014-08-02T02:20:00,0,20835941,185343
OK,87,32,1016,87,2014-08-02T02:25:00,0,20836390,185343
OK,87,32,1016,87,2014-08-02T02:30:00,0,20836839,185343
OK,87,32,1016,87,2014-08-02T02:35:00,0,20837288,185343
OK,87,32,1016,87,2014-08-02T02:40:00,0,20837737,185343
OK,87,32,1016,87,2014-08-02T02:45:00,0,20838186,185343
OK,87,32,1016,87,2014-08-02T02:50:00,0,20838635,185343
OK,87,32,1016,87,2014-08-02T02:55:00,0,20839084,185343
OK,87,32,1016,87,2014-08-02T03:00:00,0,20839533,185343
OK,87,32,1016,87,2014-08-02T03:05:00,0,20839982,185343
OK,87,32,1016,87,2014-08-02T03:10:00,0,20840431,185343
OK,87,32,1016,87,2014-08-02T03:15:00,0,20840880,185343
OK,87,32,1016,87,2014-08-02T03:20:00,0,20841329,185343
OK,87,32,1016,87,2014-08-02T03:25:00,0,20841778,185343
OK,87,32,1016,87,2014-08-02T03:30:00,0,20842227,185343
OK,87,32,1016,87,2014-08-02T03:35:00,0,20842676,185343
OK,87,32,1016,87,2014-08-02T03:40:00,0,20843125,185343
OK,87,32,1016,87,2014-08-02T03:45:00,0,20843574,185343
OK,87,32,1016,87,2014-08-02T03:50:00,0,20844023,185343
OK,87,32,1016,87,2014-08-02T03:55:00,0,20844472,185343
OK,87,32,1016,87,2014-08-02T06:00:00,0,20851926,185343
OK,87,32,1016,87,2014-08-02T06:05:00,0,20852375,185343
OK,87,32,1016,87,2014-08-02T06:10:00,0,20852824,185343
OK,47,59,1016,47,2014-08-02T06:15:00,1,20853273,185343
OK,47,59,1016,47,2014-08-02T06:20:00,1,20853722,185343
OK,47,59,1016,47,2014-08-02T06:25:00,0,20854171,185343
OK,47,59,1016,47,2014-08-02T06:30:00,0,20854620,185343
OK,47,59,1016,47,2014-08-02T06:35:00,0,20855069,185343
OK,47,59,1016,47,2014-08-02T06:40:00,0,20855518,185343
OK,47,59,1016,47,2014-08-02T06:45:00,0,20855967,185343
OK,47,59,1016,47,2014-08-02T06:50:00,0,20856416,185343
OK,47,59,1016,47,2014-08-02T06:55:00,0,20856865,185343
OK,47,59,1016,47,2014-08-02T07:00:00,0,20857314,185343
OK,47,59,1016,47,2014-08-02T07:05:00,0,20857763,185343
OK,47,59,1016,47,2014-08-02T07:10:00,0,20858212,185343
OK,47,59,1016,47,2014-08-02T07:15:00,0,20858661,185343
OK,47,59,1016,47,2014-08-02T07:20:00,0,20859110,185343
OK,47,59,1016,47,2014-08-02T07:25:00,0,20859559,185343
OK,47,59,1016,47,2014-08-02T07:30:00,0,20860008,185343
OK,47,59,1016,47,2014-08-02T07:35:00,0,20860457,185343
OK,47,59,1016,47,2014-08-02T07:40:00,0,20860906,185343
OK,47,59,1016,47,2014-08-02T07:45:00,0,20861355,185343
OK,47,59,1016,47,2014-08-02T07:50:00,0,20861804,185343
OK,47,59,1016,47,2014-08-02T07:55:00,0,20862253,185343
OK,47,59,1016,47,2014-08-02T08:00:00,0,20862702,185343
OK,47,59,1016,47,2014-08-02T08:05:00,0,20863151,185343
OK,47,59,1016,47,2014-08-02T08:10:00,0,20863600,185343
OK,47,59,1016,47,2014-08-02T08:15:00,0,20864049,185343
OK,47,59,1016,47,2014-08-02T08:20:00,0,20864498,185343
OK,47,59,1016,47,2014-08-02T08:25:00,0,20864947,185343
OK,47,59,1016,47,2014-08-02T08:30:00,0,20865396,185343
OK,123,22,1016,123,2014-08-02T08:35:00,1,20865845,185343
OK,123,22,1016,123,2014-08-02T08:40:00,1,20866294,185343
OK,123,22,1016,123,2014-08-02T08:45:00,0,20866743,185343
OK,136,20,1016,136,2014-08-02T08:50:00,3,20867192,185343
OK,136,20,1016,136,2014-08-02T08:55:00,3,20867641,185343
OK,120,23,1016,120,2014-08-02T09:00:00,1,20868090,185343
OK,130,21,1016,130,2014-08-02T09:05:00,2,20868539,185343
OK,141,19,1016,141,2014-08-02T09:10:00,1,20868988,185343
OK,105,26,1016,105,2014-08-02T09:15:00,1,20869437,185343
OK,105,26,1016,105,2014-08-02T09:20:00,1,20869886,185343
OK,112,25,1016,112,2014-08-02T09:25:00,2,20870335,185343
OK,116,24,1016,116,2014-08-02T09:30:00,3,20870784,185343
OK,160,17,1016,160,2014-08-02T09:35:00,1,20871233,185343
OK,160,17,1016,160,2014-08-02T09:40:00,0,20871682,185343
OK,160,17,1016,160,2014-08-02T09:45:00,0,20872131,185343
OK,160,17,1016,160,2014-08-02T09:50:00,0,20872580,185343
OK,145,19,1016,145,2014-08-02T09:55:00,3,20873029,185343
OK,145,19,1016,145,2014-08-02T10:00:00,3,20873478,185343
OK,50,56,1016,50,2014-08-02T10:05:00,1,20873927,185343
OK,90,31,1016,90,2014-08-02T10:10:00,2,20874376,185343
OK,131,21,1016,131,2014-08-02T10:15:00,1,20874825,185343
OK,131,21,1016,131,2014-08-02T10:20:00,0,20875274,185343
OK,131,21,1016,131,2014-08-02T10:25:00,0,20875723,185343
OK,131,21,1016,131,2014-08-02T10:30:00,0,20876172,185343
OK,131,21,1016,131,2014-08-02T10:35:00,0,20876621,185343
OK,131,21,1016,131,2014-08-02T10:40:00,0,20877070,185343
OK,131,21,1016,131,2014-08-02T10:45:00,0,20877519,185343
OK,142,19,1016,142,2014-08-02T10:50:00,2,20877968,185343
OK,142,19,1016,142,2014-08-02T10:55:00,2,20878417,185343
OK,122,23,1016,122,2014-08-02T11:00:00,0,20878866,185343
OK,122,23,1016,122,2014-08-02T11:05:00,0,20879315,185343
OK,122,23,1016,122,2014-08-02T11:10:00,0,20879764,185343
OK,122,23,1016,122,2014-08-02T11:15:00,0,20880213,185343
OK,122,23,1016,122,2014-08-02T11:20:00,0,20880662,185343
OK,151,18,1016,151,2014-08-02T11:25:00,1,20881111,185343
OK,100,28,1016,100,2014-08-02T11:30:00,3,20881560,185343
OK,114,24,1016,114,2014-08-02T11:35:00,2,20882009,185343
OK,130,21,1016,130,2014-08-02T11:40:00,1,20882458,185343
OK,130,21,1016,130,2014-08-02T11:45:00,0,20882907,185343
OK,130,21,1016,130,2014-08-02T11:50:00,0,20883356,185343
OK,130,21,1016,130,2014-08-02T11:55:00,0,20883805,185343
OK,130,21,1016,130,2014-08-02T12:00:00,0,20884254,185343
OK,152,18,1016,152,2014-08-02T12:05:00,1,20884703,185343
OK,144,19,1016,144,2014-08-02T12:10:00,3,20885152,185343
OK,126,22,1016,126,2014-08-02T12:15:00,2,20885601,185343
OK,144,19,1016,144,2014-08-02T12:20:00,0,20886050,185343
OK,144,19,1016,144,2014-08-02T12:25:00,0,20886499,185343
OK,138,20,1016,138,2014-08-02T12:30:00,1,20886948,185343
OK,138,20,1016,138,2014-08-02T12:35:00,1,20887397,185343
OK,129,21,1016,129,2014-08-02T12:40:00,3,20887846,185343
OK,129,21,1016,129,2014-08-02T12:45:00,3,20888295,185343
OK,132,21,1016,132,2014-08-02T12:50:00,0,20888744,185343
OK,142,19,1016,142,2014-08-02T12:55:00,1,20889193,185343
OK,103,27,1016,103,2014-08-02T13:00:00,4,20889642,185343
OK,102,27,1016,102,2014-08-02T13:05:00,3,20890091,185343
OK,102,27,1016,102,2014-08-02T13:10:00,0,20890540,185343
OK,110,25,1016,110,2014-08-02T13:15:00,1,20890989,185343
OK,110,25,1016,110,2014-08-02T13:20:00,3,20891438,185343
OK,96,29,1016,96,2014-08-02T13:25:00,2,20891887,185343
OK,96,29,1016,96,2014-08-02T13:30:00,0,20892336,185343
OK,96,29,1016,96,2014-08-02T13:35:00,0,20892785,185343
OK,96,29,1016,96,2014-08-02T13:40:00,0,20893234,185343
OK,96,29,1016,96,2014-08-02T13:45:00,0,20893683,185343
OK,133,21,1016,133,2014-08-02T13:50:00,1,20894132,185343
OK,133,21,1016,133,2014-08-02T13:55:00,1,20894581,185343
OK,133,21,1016,133,2014-08-02T14:00:00,0,20895030,185343
OK,133,21,1016,133,2014-08-02T14:05:00,0,20895479,185343
OK,76,36,1016,76,2014-08-02T14:10:00,1,20895928,185343
OK,91,30,1016,91,2014-08-02T14:15:00,2,20896377,185343
OK,88,31,1016,88,2014-08-02T14:20:00,2,20896826,185343
OK,70,40,1016,70,2014-08-02T14:25:00,1,20897275,185343
OK,102,27,1016,102,2014-08-02T14:30:00,2,20897724,185343
OK,102,27,1016,102,2014-08-02T14:35:00,2,20898173,185343
OK,92,30,1016,92,2014-08-02T14:40:00,0,20898622,185343
OK,92,30,1016,92,2014-08-02T14:45:00,0,20899071,185343
OK,140,20,1016,140,2014-08-02T14:50:00,1,20899520,185343
OK,140,20,1016,140,2014-08-02T14:55:00,0,20899969,185343
OK,140,20,1016,140,2014-08-02T15:00:00,0,20900418,185343
OK,140,20,1016,140,2014-08-02T15:05:00,0,20900867,185343
OK,127,22,1016,127,2014-08-02T15:10:00,1,20901316,185343
OK,123,22,1016,123,2014-08-02T15:15:00,2,20901765,185343
OK,133,21,1016,133,2014-08-02T15:20:00,3,20902214,185343
OK,148,18,1016,148,2014-08-02T15:25:00,2,20902663,185343
OK,163,17,1016,163,2014-08-02T15:30:00,0,20903112,185343
OK,163,17,1016,163,2014-08-02T15:35:00,0,20903561,185343
OK,52,54,1016,52,2014-08-02T15:40:00,1,20904010,185343
OK,52,54,1016,52,2014-08-02T15:45:00,1,20904459,185343
OK,52,54,1016,52,2014-08-02T15:50:00,0,20904908,185343
OK,52,54,1016,52,2014-08-02T15:55:00,0,20905357,185343
OK,38,73,1016,38,2014-08-02T16:00:00,1,20905806,185343
OK,38,73,1016,38,2014-08-02T16:05:00,0,20906255,185343
OK,61,46,1016,61,2014-08-02T16:10:00,1,20906704,185343
OK,61,46,1016,61,2014-08-02T16:15:00,0,20907153,185343
OK,61,46,1016,61,2014-08-02T16:20:00,0,20907602,185343
OK,61,46,1016,61,2014-08-02T16:25:00,0,20908051,185343
OK,141,19,1016,141,2014-08-02T16:30:00,1,20908500,185343
OK,141,19,1016,141,2014-08-02T16:35:00,1,20908949,185343
OK,61,46,1016,61,2014-08-02T16:40:00,0,20909398,185343
OK,61,46,1016,61,2014-08-02T16:45:00,0,20909847,185343
OK,61,46,1016,61,2014-08-02T16:50:00,0,20910296,185343
OK,144,19,1016,144,2014-08-02T16:55:00,1,20910745,185343
OK,144,19,1016,144,2014-08-02T17:00:00,1,20911194,185343
OK,144,19,1016,144,2014-08-02T17:05:00,0,20911643,185343
OK,144,19,1016,144,2014-08-02T17:10:00,0,20912092,185343
OK,90,31,1016,90,2014-08-02T17:15:00,2,20912541,185343
OK,119,23,1016,119,2014-08-02T17:20:00,1,20912990,185343
OK,119,23,1016,119,2014-08-02T17:25:00,0,20913439,185343
OK,119,23,1016,119,2014-08-02T17:30:00,0,20913888,185343
OK,119,23,1016,119,2014-08-02T17:35:00,0,20914337,185343
OK,119,23,1016,119,2014-08-02T17:40:00,0,20914786,185343
OK,119,23,1016,119,2014-08-02T17:45:00,0,20915235,185343
OK,119,23,1016,119,2014-08-02T17:50:00,0,20915684,185343
OK,119,23,1016,119,2014-08-02T17:55:00,0,20916133,185343
OK,119,23,1016,119,2014-08-02T18:00:00,0,20916582,185343
OK,119,23,1016,119,2014-08-02T18:05:00,0,20917031,185343
OK,119,23,1016,119,2014-08-02T18:10:00,0,20917480,185343
OK,119,23,1016,119,2014-08-02T18:15:00,0,20917929,185343
OK,119,23,1016,119,2014-08-02T18:20:00,0,20918378,185343
OK,119,23,1016,119,2014-08-02T18:25:00,0,20918827,185343
OK,67,41,1016,67,2014-08-02T18:30:00,2,20919276,185343
OK,65,43,1016,65,2014-08-02T18:35:00,1,20919725,185343
OK,65,43,1016,65,2014-08-02T18:40:00,0,20920174,185343
OK,65,43,1016,65,2014-08-02T18:45:00,0,20920623,185343
OK,62,45,1016,62,2014-08-02T18:50:00,1,20921072,185343
OK,62,45,1016,62,2014-08-02T18:55:00,1,20921521,185343
OK,62,45,1016,62,2014-08-02T19:00:00,0,20921970,185343
OK,62,45,1016,62,2014-08-02T19:05:00,0,20922419,185343
OK,62,45,1016,62,2014-08-02T19:10:00,0,20922868,185343
OK,62,45,1016,62,2014-08-02T19:15:00,0,20923317,185343
OK,128,21,1016,128,2014-08-02T19:20:00,1,20923766,185343
OK,128,21,1016,128,2014-08-02T19:25:00,1,20924215,185343
OK,57,49,1016,57,2014-08-02T19:30:00,1,20924664,185343
OK,57,49,1016,57,2014-08-02T19:35:00,1,20925113,185343
OK,57,49,1016,57,2014-08-02T19:40:00,0,20925562,185343
OK,57,49,1016,57,2014-08-02T19:45:00,0,20926011,185343
OK,57,49,1016,57,2014-08-02T19:50:00,0,20926460,185343
OK,57,49,1016,57,2014-08-02T19:55:00,0,20926909,185343
OK,57,49,1016,57,2014-08-02T20:00:00,0,20927358,185343
OK,57,49,1016,57,2014-08-02T20:05:00,0,20927807,185343
OK,57,49,1016,57,2014-08-02T20:10:00,0,20928256,185343
OK,57,49,1016,57,2014-08-02T20:15:00,0,20928705,185343
OK,57,49,1016,57,2014-08-02T20:20:00,0,20929154,185343
OK,57,49,1016,57,2014-08-02T20:25:00,0,20929603,185343
OK,57,49,1016,57,2014-08-02T20:30:00,0,20930052,185343
OK,57,49,1016,57,2014-08-02T20:35:00,0,20930501,185343
OK,57,49,1016,57,2014-08-02T20:40:00,0,20930950,185343
OK,57,49,1016,57,2014-08-02T20:45:00,0,20931399,185343
OK,57,49,1016,57,2014-08-02T20:50:00,0,20931848,185343
OK,119,23,1016,119,2014-08-02T20:55:00,1,20932297,185343
OK,88,31,1016,88,2014-08-02T21:00:00,2,20932746,185343
OK,187,15,1016,187,2014-08-02T21:05:00,1,20933195,185343
OK,122,23,1016,122,2014-08-02T21:10:00,2,20933644,185343
OK,78,36,1016,78,2014-08-02T21:15:00,2,20934093,185343
OK,102,27,1016,102,2014-08-02T21:20:00,2,20934542,185343
OK,106,26,1016,106,2014-08-02T21:25:00,1,20934991,185343
OK,106,26,1016,106,2014-08-02T21:30:00,0,20935440,185343
OK,106,26,1016,106,2014-08-02T21:35:00,0,20935889,185343
OK,106,26,1016,106,2014-08-02T21:40:00,0,20936338,185343
OK,106,26,1016,106,2014-08-02T21:45:00,0,20936787,185343
OK,106,26,1016,106,2014-08-02T21:50:00,0,20937236,185343
OK,78,36,1016,78,2014-08-02T21:55:00,1,20937685,185343
OK,78,36,1016,78,2014-08-02T22:00:00,0,20938134,185343
OK,78,36,1016,78,2014-08-02T22:05:00,0,20938583,185343
OK,230,12,1016,230,2014-08-02T22:10:00,1,20939032,185343
OK,230,12,1016,230,2014-08-02T22:15:00,0,20939481,185343
OK,230,12,1016,230,2014-08-02T22:20:00,0,20939930,185343
OK,230,12,1016,230,2014-08-02T22:25:00,0,20940379,185343
OK,230,12,1016,230,2014-08-02T22:30:00,0,20940828,185343
OK,230,12,1016,230,2014-08-02T22:35:00,0,20941277,185343
OK,230,12,1016,230,2014-08-02T22:40:00,0,20941726,185343
OK,230,12,1016,230,2014-08-02T22:45:00,0,20942175,185343
OK,230,12,1016,230,2014-08-02T22:50:00,0,20942624,185343
OK,230,12,1016,230,2014-08-02T22:55:00,0,20943073,185343
OK,230,12,1016,230,2014-08-02T23:00:00,0,20943522,185343
OK,230,12,1016,230,2014-08-02T23:10:00,0,20943971,185343
OK,230,12,1016,230,2014-08-02T23:15:00,0,20944420,185343
OK,230,12,1016,230,2014-08-02T23:20:00,0,20944869,185343
OK,230,12,1016,230,2014-08-02T23:25:00,0,20945318,185343
OK,230,12,1016,230,2014-08-02T23:30:00,0,20945767,185343
OK,230,12,1016,230,2014-08-02T23:35:00,0,20946216,185343
OK,230,12,1016,230,2014-08-02T23:40:00,0,20946665,185343
OK,230,12,1016,230,2014-08-02T23:45:00,0,20947114,185343
OK,44,63,1016,44,2014-08-02T23:50:00,1,20947563,185343
OK,44,63,1016,44,2014-08-02T23:55:00,1,20948012,185343
OK,44,63,1016,44,2014-08-03T00:00:00,0,20948461,185343
OK,44,63,1016,44,2014-08-03T00:05:00,0,20948910,185343
OK,44,63,1016,44,2014-08-03T00:10:00,0,20949358,185343
OK,44,63,1016,44,2014-08-03T00:15:00,0,20949807,185343
OK,44,63,1016,44,2014-08-03T00:20:00,0,20950256,185343
OK,44,63,1016,44,2014-08-03T00:25:00,0,20950705,185343
OK,44,63,1016,44,2014-08-03T00:30:00,0,20951154,185343
OK,44,63,1016,44,2014-08-03T00:35:00,0,20951603,185343
OK,44,63,1016,44,2014-08-03T00:40:00,0,20952052,185343
OK,44,63,1016,44,2014-08-03T00:45:00,0,20952501,185343
OK,44,63,1016,44,2014-08-03T00:50:00,0,20952950,185343
OK,44,63,1016,44,2014-08-03T00:55:00,0,20953399,185343
OK,44,63,1016,44,2014-08-03T01:00:00,0,20953848,185343
OK,44,63,1016,44,2014-08-03T01:05:00,0,20954297,185343
OK,44,63,1016,44,2014-08-03T01:10:00,0,20954746,185343
OK,44,63,1016,44,2014-08-03T01:15:00,0,20955195,185343
OK,44,63,1016,44,2014-08-03T01:20:00,0,20955644,185343
OK,44,63,1016,44,2014-08-03T01:25:00,0,20956093,185343
OK,44,63,1016,44,2014-08-03T01:30:00,0,20956542,185343
OK,44,63,1016,44,2014-08-03T01:35:00,0,20956991,185343
OK,44,63,1016,44,2014-08-03T01:40:00,0,20957440,185343
OK,44,63,1016,44,2014-08-03T01:45:00,0,20957889,185343
OK,44,63,1016,44,2014-08-03T01:50:00,0,20958338,185343
OK,44,63,1016,44,2014-08-03T01:55:00,0,20958787,185343
OK,44,63,1016,44,2014-08-03T02:00:00,0,20959236,185343
OK,44,63,1016,44,2014-08-03T02:05:00,0,20959685,185343
OK,44,63,1016,44,2014-08-03T02:10:00,0,20960134,185343
OK,44,63,1016,44,2014-08-03T02:15:00,0,20960583,185343
OK,44,63,1016,44,2014-08-03T02:20:00,0,20961032,185343
OK,44,63,1016,44,2014-08-03T02:25:00,0,20961481,185343